This demonstration page uses our WeatherBlox Daily Observations layout. Learn more.

Left ArrowRight Arrow

36.17497, -115.13722

Hourly Observations for August 26, 2020

Temp ( °F °C ) Dew Point ( °F °C ) Humidity (%) Winds ( mph kmh ) Pressure ( in mb ) Visibility ( mi km ) Precip ( " mm )
12:53 am 00:53 Clear 92 33.3 42 5.6 18 18 N N/A 29.71 1006 10 16 N/A
1:53 am 01:53 Clear 90 32.2 40 4.4 17 17 N N/A 29.70 1006 10 16 N/A
2:53 am 02:53 Clear 91 32.8 39 3.9 16 16 N N/A 29.70 1006 10 16 N/A
3:53 am 03:53 Clear 87 30.6 41 5 20 20 N 3 6 29.71 1006 10 16 N/A
4:53 am 04:53 Clear 85 29.4 43 6.1 23 23 N 5 7 29.72 1006 10 16 N/A
5:53 am 05:53 Clear 84 28.9 44 6.7 25 25 WNW 5 7 29.73 1007 10 16 N/A
6:53 am 06:53 Sunny 86 30 42 5.6 21 21 NNW 7 11 29.75 1008 10 16 N/A
7:53 am 07:53 Sunny 89 31.7 45 7.2 22 22 N N/A 29.75 1008 10 16 N/A
8:53 am 08:53 Sunny 92 33.3 42 5.6 18 18 N 3 6 29.75 1008 10 16 N/A
9:53 am 09:53 Sunny 96 35.6 42 5.6 15 15 N N/A 29.75 1008 10 16 N/A
10:53 am 10:53 Sunny 101 38.3 40 4.4 12 12 VRB 3 6 29.74 1007 10 16 N/A
11:53 am 11:53 Sunny 105 40.6 39 3.9 10 10 E 10 17 29.72 1006 10 16 N/A
12:53 pm 12:53 Sunny 108 42.2 35 1.7 8 8 S 17 28 29.68 1005 10 16 N/A
1:53 pm 13:53 Sunny 109 42.8 37 2.8 8 8 S 22 35 29.66 1005 10 16 N/A
2:53 pm 14:53 Sunny 109 42.8 36 2.2 8 8 SSW 21 33 29.64 1004 10 16 N/A
3:53 pm 15:53 Sunny 109 42.8 35 1.7 8 8 S 23 37 29.62 1003 10 16 N/A
4:53 pm 16:53 Sunny 109 42.8 27 -2.8 6 6 SW 16 26 29.61 1003 10 16 N/A
5:53 pm 17:53 Sunny 107 41.7 30 -1.1 7 7 WSW 16 26 29.61 1003 10 16 N/A
6:53 pm 18:53 Sunny 105 40.6 30 -1.1 7 7 SW 10 17 29.61 1003 10 16 N/A
7:53 pm 19:53 Clear 102 38.9 32 undefined 9 9 SSW 9 15 29.62 1003 10 16 N/A
8:53 pm 20:53 Clear 99 37.2 34 1.1 10 10 SSW 8 13 29.63 1004 10 16 N/A
9:53 pm 21:53 Clear 98 36.7 36 2.2 11 11 SSW 8 13 29.63 1004 10 16 N/A
10:53 pm 22:53 Clear 95 35 36 2.2 13 13 SSW 9 15 29.63 1003 10 16 N/A
11:53 pm 23:53 Clear 94 34.4 37 2.8 14 14 SW 7 11 29.63 1004 10 16 N/A

Powered by AerisWeather